Location: Lecco
(45.8566°N, 9.3977°E)
Time: 07:18:45
(UTC+02:00)

S-56A Canister/Altair - Pass Details

Date: 28 July 2019
Orbit: 633 x 2499 km, 38.9° (Epoch: 19 August)

Event Time Altitude Azimuth Distance (km) Brightness Sun altitude
Rises 03:59:55 0° 187° (S) 3,982 - -16.6°
Exits shadow 04:02:46 - 172° (S) 3,441 10.4 -16.3°
Reaches altitude 10° 04:03:33 10° 168° (SSE) 3,337 10.4 -16.2°
Maximum altitude 04:08:44 17° 130° (SE) 3,222 10.7 -15.7°
Drops below altitude 10° 04:15:05 10° 95° (E) 4,262 11.8 -15.0°
Sets 04:20:40 0° 79° (E) 5,619 12.8 -14.3°
